"Sample Date","Sample Time","Sample Value","Units","Flow Rate","Sample Interval","Number Channels","Micron Size 0","Counts/Channel 0","Micron Size 1","Counts/Channel 1","Micron Size 2","Counts/Channel 2","Micron Size 3","Counts/Channel 3","Micron Size 4","Counts/Channel 4","Micron Size 5","Counts/Channel 5","Micron Size 6","Counts/Channel 6","Micron Size 7","Counts/Channel 7","Micron Size 8","Counts/Channel 8","Micron Size 9","Counts/Channel 9","Micron Size 10","Counts/Channel 10","Micron Size 11","Counts/Channel 11","Micron Size 12","Counts/Channel 12","Micron Size 13","Counts/Channel 13","Micron Size 14","Counts/Channel 14","Micron Size 15","Counts/Channel 15","Micron Size 16","Counts/Channel 16","Micron Size 17","Counts/Channel 17","Micron Size 18","Counts/Channel 18","Micron Size 19","Counts/Channel 19","Micron Size 20","Counts/Channel 20","Micron Size 21","Counts/Channel 21","Micron Size 22","Counts/Channel 22","Micron Size 23","Counts/Channel 23","Micron Size 24","Counts/Channel 24","Micron Size 25","Counts/Channel 25","Micron Size 26","Counts/Channel 26","Micron Size 27","Counts/Channel 27","Micron Size 28","Counts/Channel 28","Micron Size 29","Counts/Channel 29","Micron Size 30","Counts/Channel 30","Micron Size 31","Counts/Channel 31"
"03/05/08","18:00:05",38457.000,"cc",28344.559,6.00,6,0.100,31873.000,0.200,4010.000,0.300,1045.000,0.500,1114.000,1.000,415.000,5.000,0
"03/05/08","18:00:11",38431.000,"cc",28319.662,6.00,6,0.100,31926.000,0.200,4054.000,0.300,983.000,0.500,1071.000,1.000,397.000,5.000,0
"03/05/08","18:00:17",38941.000,"cc",28372.416,6.00,6,0.100,32215.000,0.200,4000.000,0.300,1109.000,0.500,1197.000,1.000,420.000,5.000,0
"03/05/08","18:00:23",38583.000,"cc",28286.676,6.00,6,0.100,31770.000,0.200,4139.000,0.300,1087.000,0.500,1176.000,1.000,411.000,5.000,0
"03/05/08","18:00:29",38397.000,"cc",28274.811,6.00,6,0.100,31767.000,0.200,4068.000,0.300,1049.000,0.500,1099.000,1.000,414.000,5.000,0
"03/05/08","18:00:35",38072.000,"cc",28361.912,6.00,6,0.100,31455.000,0.200,4046.000,0.300,1046.000,0.500,1150.000,1.000,375.000,5.000,0
"03/05/08","18:00:41",38465.000,"cc",28328.676,6.00,6,0.100,31779.000,0.200,4094.000,0.300,1026.000,0.500,1142.000,1.000,424.000,5.000,0
"03/05/08","18:00:47",38585.000,"cc",28272.543,6.00,6,0.100,31905.000,0.200,4017.000,0.300,1046.000,0.500,1205.000,1.000,412.000,5.000,0
"03/05/08","18:00:53",39079.000,"cc",28324.531,6.00,6,0.100,32365.000,0.200,3986.000,0.300,1114.000,0.500,1207.000,1.000,407.000,5.000,0
"03/05/08","18:00:59",38887.000,"cc",28344.988,6.00,6,0.100,32098.000,0.200,4073.000,0.300,1092.000,0.500,1193.000,1.000,431.000,5.000,0
"03/05/08","18:01:05",38773.000,"cc",28275.650,6.00,6,0.100,32042.000,0.200,4035.000,0.300,1040.000,0.500,1213.000,1.000,443.000,5.000,0
"03/05/08","18:01:11",39012.000,"cc",28290.039,6.00,6,0.100,32377.000,0.200,4105.000,0.300,1050.000,0.500,1097.000,1.000,383.000,5.000,0
"03/05/08","18:01:17",38519.000,"cc",28308.891,6.00,6,0.100,31950.000,0.200,4028.000,0.300,1012.000,0.500,1113.000,1.000,416.000,5.000,0
"03/05/08","18:01:23",38273.000,"cc",28323.975,6.00,6,0.100,31851.000,0.200,3952.000,0.300,946.000,0.500,1129.000,1.000,395.000,5.000,0
"03/05/08","18:01:29",39108.000,"cc",28365.557,6.00,6,0.100,32426.000,0.200,4056.000,0.300,1068.000,0.500,1140.000,1.000,418.000,5.000,0
"03/05/08","18:01:35",38339.000,"cc",28347.781,6.00,6,0.100,31643.000,0.200,3971.000,0.300,1081.000,0.500,1245.000,1.000,399.000,5.000,0
"03/05/08","18:01:41",38931.000,"cc",28309.803,6.00,6,0.100,31919.000,0.200,4085.000,0.300,1164.000,0.500,1322.000,1.000,441.000,5.000,0
"03/05/08","18:01:47",39182.000,"cc",28270.875,6.00,6,0.100,32308.000,0.200,4076.000,0.300,1092.000,0.500,1273.000,1.000,433.000,5.000,0
"03/05/08","18:01:53",38810.000,"cc",28313.018,6.00,6,0.100,32051.000,0.200,4036.000,0.300,1086.000,0.500,1226.000,1.000,411.000,5.000,0
"03/05/08","18:01:59",39046.000,"cc",28365.131,6.00,6,0.100,32282.000,0.200,3967.000,0.300,1162.000,0.500,1199.000,1.000,436.000,5.000,0
"03/05/08","18:02:05",39292.000,"cc",28223.727,6.00,6,0.100,32280.000,0.200,4111.000,0.300,1205.000,0.500,1220.000,1.000,476.000,5.000,0
"03/05/08","18:02:11",39313.000,"cc",28336.039,6.00,6,0.100,32449.000,0.200,3990.000,0.300,1206.000,0.500,1218.000,1.000,450.000,5.000,0
"03/05/08","18:02:17",39623.000,"cc",28282.887,6.00,6,0.100,32838.000,0.200,4023.000,0.300,1129.000,0.500,1226.000,1.000,407.000,5.000,0
"03/05/08","18:02:23",39411.000,"cc",28301.273,6.00,6,0.100,32607.000,0.200,3972.000,0.300,1108.000,0.500,1278.000,1.000,446.000,5.000,0
"03/05/08","18:02:29",39406.000,"cc",28348.922,6.00,6,0.100,32616.000,0.200,3974.000,0.300,1094.000,0.500,1262.000,1.000,460.000,5.000,0
"03/05/08","18:02:35",39305.000,"cc",28301.375,6.00,6,0.100,32611.000,0.200,3900.000,0.300,1115.000,0.500,1239.000,1.000,440.000,5.000,0
"03/05/08","18:02:41",39263.000,"cc",28300.424,6.00,6,0.100,32418.000,0.200,3976.000,0.300,1198.000,0.500,1230.000,1.000,441.000,5.000,0
"03/05/08","18:02:47",39175.000,"cc",28287.625,6.00,6,0.100,32374.000,0.200,3959.000,0.300,1173.000,0.500,1224.000,1.000,445.000,5.000,0
"03/05/08","18:02:53",38967.000,"cc",28319.398,6.00,6,0.100,32196.000,0.200,3976.000,0.300,1145.000,0.500,1228.000,1.000,422.000,5.000,0
"03/05/08","18:02:59",39096.000,"cc",28274.879,6.00,6,0.100,32295.000,0.200,4047.000,0.300,1073.000,0.500,1271.000,1.000,410.000,5.000,0
"03/05/08","18:03:05",39185.000,"cc",28355.156,6.00,6,0.100,32352.000,0.200,3950.000,0.300,1222.000,0.500,1215.000,1.000,446.000,5.000,0
"03/05/08","18:03:11",39371.000,"cc",28338.768,6.00,6,0.100,32221.000,0.200,4182.000,0.300,1184.000,0.500,1280.000,1.000,504.000,5.000,0
"03/05/08","18:03:17",39641.000,"cc",28302.637,6.00,6,0.100,32457.000,0.200,4087.000,0.300,1225.000,0.500,1431.000,1.000,441.000,5.000,0
"03/05/08","18:03:23",39512.000,"cc",28358.004,6.00,6,0.100,32489.000,0.200,4117.000,0.300,1223.000,0.500,1218.000,1.000,465.000,5.000,0
"03/05/08","18:03:29",39472.000,"cc",28294.801,6.00,6,0.100,32478.000,0.200,4113.000,0.300,1147.000,0.500,1292.000,1.000,442.000,5.000,0
"03/05/08","18:03:35",39188.000,"cc",28301.381,6.00,6,0.100,32153.000,0.200,4064.000,0.300,1217.000,0.500,1280.000,1.000,474.000,5.000,0
"03/05/08","18:03:41",40661.000,"cc",28280.889,6.00,6,0.100,32956.000,0.200,4526.000,0.300,1355.000,0.500,1352.000,1.000,472.000,5.000,0
"03/05/08","18:03:47",40227.000,"cc",28316.338,6.00,6,0.100,32744.000,0.200,4427.000,0.300,1274.000,0.500,1311.000,1.000,471.000,5.000,0
"03/05/08","18:03:53",40991.000,"cc",28339.623,6.00,6,0.100,33208.000,0.200,4547.000,0.300,1387.000,0.500,1349.000,1.000,500.000,5.000,0
"03/05/08","18:03:59",40535.000,"cc",28350.863,6.00,6,0.100,32999.000,0.200,4318.000,0.300,1347.000,0.500,1394.000,1.000,477.000,5.000,0
"03/05/08","18:04:05",41308.000,"cc",28332.789,6.00,6,0.100,33382.000,0.200,4560.000,0.300,1393.000,0.500,1459.000,1.000,514.000,5.000,0
"03/05/08","18:04:11",41125.000,"cc",28306.385,6.00,6,0.100,33166.000,0.200,4466.000,0.300,1457.000,0.500,1534.000,1.000,502.000,5.000,0
"03/05/08","18:04:17",41073.000,"cc",28349.092,6.00,6,0.100,32942.000,0.200,4618.000,0.300,1523.000,0.500,1500.000,1.000,490.000,5.000,0
"03/05/08","18:04:23",39911.000,"cc",28319.131,6.00,6,0.100,32378.000,0.200,4392.000,0.300,1315.000,0.500,1352.000,1.000,474.000,5.000,0
"03/05/08","18:04:29",40336.000,"cc",28247.895,6.00,6,0.100,32864.000,0.200,4252.000,0.300,1366.000,0.500,1377.000,1.000,477.000,5.000,0
"03/05/08","18:04:35",41671.000,"cc",28306.580,6.00,6,0.100,33650.000,0.200,4605.000,0.300,1447.000,0.500,1435.000,1.000,534.000,5.000,0
"03/05/08","18:04:41",43753.000,"cc",28377.445,6.00,6,0.100,35457.000,0.200,4770.000,0.300,1508.000,0.500,1474.000,1.000,544.000,5.000,0
"03/05/08","18:04:47",47253.000,"cc",28214.508,6.00,6,0.100,38501.000,0.200,5037.000,0.300,1597.000,0.500,1579.000,1.000,539.000,5.000,0
"03/05/08","18:04:53",41258.000,"cc",28374.902,6.00,6,0.100,33340.000,0.200,4329.000,0.300,1430.000,0.500,1613.000,1.000,546.000,5.000,0
"03/05/08","18:04:59",40353.000,"cc",28304.711,6.00,6,0.100,32796.000,0.200,4141.000,0.300,1418.000,0.500,1465.000,1.000,533.000,5.000,0
"03/05/08","18:05:05",41414.000,"cc",28326.863,6.00,6,0.100,33469.000,0.200,4338.000,0.300,1470.000,0.500,1587.000,1.000,550.000,5.000,0
"03/05/08","18:05:11",41233.000,"cc",28239.811,6.00,6,0.100,33367.000,0.200,4225.000,0.300,1451.000,0.500,1586.000,1.000,604.000,5.000,0
"03/05/08","18:05:17",44463.000,"cc",28312.393,6.00,6,0.100,35836.000,0.200,4746.000,0.300,1623.000,0.500,1637.000,1.000,621.000,5.000,0
"03/05/08","18:05:23",47931.000,"cc",28341.815,6.00,6,0.100,38508.000,0.200,5150.000,0.300,1815.000,0.500,1852.000,1.000,606.000,5.000,0
"03/05/08","18:05:29",46094.000,"cc",28280.293,6.00,6,0.100,37432.000,0.200,4843.000,0.300,1626.000,0.500,1615.000,1.000,578.000,5.000,0
"03/05/08","18:05:35",54223.000,"cc",28284.975,6.00,6,0.100,44223.000,0.200,5712.000,0.300,1824.000,0.500,1815.000,1.000,649.000,5.000,0
"03/05/08","18:05:41",50249.000,"cc",28357.006,6.00,6,0.100,41480.000,0.200,5080.000,0.300,1555.000,0.500,1603.000,1.000,531.000,5.000,0
"03/05/08","18:05:47",50143.000,"cc",28340.943,6.00,6,0.100,41182.000,0.200,5050.000,0.300,1601.000,0.500,1699.000,1.000,611.000,5.000,0
"03/05/08","18:05:53",46094.000,"cc",28289.451,6.00,6,0.100,37407.000,0.200,4839.000,0.300,1581.000,0.500,1686.000,1.000,581.000,5.000,0
"03/05/08","18:05:59",43412.000,"cc",28335.102,6.00,6,0.100,35264.000,0.200,4460.000,0.300,1580.000,0.500,1555.000,1.000,553.000,5.000,0
"03/05/08","18:06:05",41497.000,"cc",28314.443,6.00,6,0.100,33956.000,0.200,4117.000,0.300,1409.000,0.500,1489.000,1.000,526.000,5.000,0
"03/05/08","18:06:11",44619.000,"cc",28320.869,6.00,6,0.100,35433.000,0.200,4779.000,0.300,1806.000,0.500,1870.000,1.000,731.000,5.000,0
"03/05/08","18:06:17",41109.000,"cc",28295.977,6.00,6,0.100,33009.000,0.200,4354.000,0.300,1475.000,0.500,1636.000,1.000,635.000,5.000,0
"03/05/08","18:06:23",42082.000,"cc",28322.582,6.00,6,0.100,33658.000,0.200,4314.000,0.300,1686.000,0.500,1768.000,1.000,656.000,5.000,0
"03/05/08","18:06:29",42896.000,"cc",28294.565,6.00,6,0.100,34242.000,0.200,4540.000,0.300,1674.000,0.500,1801.000,1.000,639.000,5.000,0
"03/05/08","18:06:35",42380.000,"cc",28293.242,6.00,6,0.100,33997.000,0.200,4548.000,0.300,1609.000,0.500,1653.000,1.000,573.000,5.000,0
"03/05/08","18:06:41",46609.000,"cc",28309.482,6.00,6,0.100,36955.000,0.200,5190.000,0.300,1893.000,0.500,1904.000,1.000,667.000,5.000,0
"03/05/08","18:06:47",47450.000,"cc",28410.906,6.00,6,0.100,37678.000,0.200,5369.000,0.300,1954.000,0.500,1804.000,1.000,645.000,5.000,0
"03/05/08","18:06:53",51680.000,"cc",28265.756,6.00,6,0.100,41871.000,0.200,5755.000,0.300,1727.000,0.500,1713.000,1.000,614.000,5.000,0
"03/05/08","18:06:59",45390.000,"cc",28316.482,6.00,6,0.100,36997.000,0.200,4721.000,0.300,1510.000,0.500,1592.000,1.000,570.000,5.000,0
"03/05/08","18:07:05",46788.000,"cc",28333.578,6.00,6,0.100,37543.000,0.200,4973.000,0.300,1753.000,0.500,1842.000,1.000,677.000,5.000,0
"03/05/08","18:07:11",52686.000,"cc",28327.393,6.00,6,0.100,42078.000,0.200,5674.000,0.300,2075.000,0.500,2114.000,1.000,745.000,5.000,0
"03/05/08","18:07:17",54859.000,"cc",28280.459,6.00,6,0.100,44641.000,0.200,5875.000,0.300,1892.000,0.500,1852.000,1.000,599.000,5.000,0
"03/05/08","18:07:23",57137.000,"cc",28309.652,6.00,6,0.100,47034.000,0.200,5867.000,0.300,1820.000,0.500,1801.000,1.000,615.000,5.000,0
"03/05/08","18:07:29",83635.000,"cc",28340.668,6.00,6,0.100,70609.000,0.200,8598.000,0.300,1914.000,0.500,1859.000,1.000,655.000,5.000,0
"03/05/08","18:07:35",67029.000,"cc",28359.252,6.00,6,0.100,55877.000,0.200,6989.000,0.300,1797.000,0.500,1776.000,1.000,590.000,5.000,0
"03/05/08","18:07:41",79974.000,"cc",28283.057,6.00,6,0.100,66136.000,0.200,8552.000,0.300,2313.000,0.500,2224.000,1.000,749.000,5.000,0
"03/05/08","18:07:47",112796.000,"cc",28361.951,6.00,6,0.100,94690.000,0.200,12150.000,0.300,2675.000,0.500,2433.000,1.000,848.000,5.000,0
"03/05/08","18:07:53",127935.000,"cc",28262.574,6.00,6,0.100,109572.000,0.200,13232.000,0.300,2410.000,0.500,2022.000,1.000,699.000,5.000,0
"03/05/08","18:07:59",257675.000,"cc",28318.717,6.00,6,0.100,221102.000,0.200,29424.000,0.300,3579.000,0.500,2620.000,1.000,950.000,5.000,0
"03/05/08","18:08:05",163483.000,"cc",28377.822,6.00,6,0.100,141885.000,0.200,16956.000,0.300,2204.000,0.500,1772.000,1.000,666.000,5.000,0
"03/05/08","18:08:11",283401.000,"cc",28307.469,6.00,6,0.100,245238.000,0.200,32772.000,0.300,2920.000,0.500,1849.000,1.000,622.000,5.000,0
"03/05/08","18:08:17",311449.000,"cc",28380.475,6.00,6,0.100,268061.000,0.200,37808.000,0.300,3068.000,0.500,1864.000,1.000,648.000,5.000,0
"03/05/08","18:08:23",269580.000,"cc",28266.404,6.00,6,0.100,233847.000,0.200,30558.000,0.300,2781.000,0.500,1745.000,1.000,649.000,5.000,0
"03/05/08","18:08:29",296107.000,"cc",28282.744,6.00,6,0.100,243334.000,0.200,46795.000,0.300,3457.000,0.500,1868.000,1.000,653.000,5.000,0
"03/05/08","18:08:35",383099.000,"cc",28351.053,6.00,6,0.100,309013.000,0.200,66721.000,0.300,4578.000,0.500,2061.000,1.000,726.000,5.000,0
"03/05/08","18:08:41",375738.000,"cc",28322.758,6.00,6,0.100,302861.000,0.200,64907.000,0.300,4840.000,0.500,2295.000,1.000,835.000,5.000,0
"03/05/08","18:08:47",268356.000,"cc",28290.996,6.00,6,0.100,183863.000,0.200,76395.000,0.300,5302.000,0.500,2048.000,1.000,748.000,5.000,0
"03/05/08","18:08:53",266267.000,"cc",28308.141,6.00,6,0.100,185400.000,0.200,73600.000,0.300,4811.000,0.500,1833.000,1.000,623.000,5.000,0
"03/05/08","18:08:59",349298.000,"cc",28336.117,6.00,6,0.100,283870.000,0.200,59093.000,0.300,4045.000,0.500,1670.000,1.000,620.000,5.000,0
"03/05/08","18:09:05",136910.000,"cc",28338.328,6.00,6,0.100,56795.000,0.200,72627.000,0.300,4916.000,0.500,1926.000,1.000,646.000,5.000,0
"03/05/08","18:09:11",186384.000,"cc",28304.662,6.00,6,0.100,83180.000,0.200,93350.000,0.300,6438.000,0.500,2579.000,1.000,837.000,5.000,0
"03/05/08","18:09:17",189374.000,"cc",28388.789,6.00,6,0.100,84000.000,0.200,96587.000,0.300,6141.000,0.500,1941.000,1.000,705.000,5.000,0
"03/05/08","18:09:23",203818.000,"cc",28271.404,6.00,6,0.100,84332.000,0.200,110046.000,0.300,6941.000,0.500,1853.000,1.000,646.000,5.000,0
"03/05/08","18:09:29",243812.000,"cc",28307.918,6.00,6,0.100,194218.000,0.200,44577.000,0.300,3123.000,0.500,1406.000,1.000,488.000,5.000,0
"03/05/08","18:09:35",283971.000,"cc",28308.647,6.00,6,0.100,246694.000,0.200,33078.000,0.300,2449.000,0.500,1311.000,1.000,439.000,5.000,0
"03/05/08","18:09:41",293816.000,"cc",28312.920,6.00,6,0.100,253510.000,0.200,35831.000,0.300,2603.000,0.500,1422.000,1.000,450.000,5.000,0
"03/05/08","18:09:47",339183.000,"cc",28355.570,6.00,6,0.100,292626.000,0.200,41784.000,0.300,2920.000,0.500,1366.000,1.000,487.000,5.000,0
"03/05/08","18:09:53",279631.000,"cc",28318.287,6.00,6,0.100,229812.000,0.200,44349.000,0.300,3308.000,0.500,1619.000,1.000,543.000,5.000,0
"03/05/08","18:09:59",290761.000,"cc",28308.211,6.00,6,0.100,252501.000,0.200,33666.000,0.300,2671.000,0.500,1406.000,1.000,517.000,5.000,0
"03/05/08","18:10:05",348263.000,"cc",28302.647,6.00,6,0.100,298854.000,0.200,43723.000,0.300,3426.000,0.500,1690.000,1.000,570.000,5.000,0
"03/05/08","18:10:11",267709.000,"cc",28327.895,6.00,6,0.100,231565.000,0.200,31295.000,0.300,2696.000,0.500,1589.000,1.000,564.000,5.000,0
"03/05/08","18:10:17",328677.000,"cc",28336.502,6.00,6,0.100,281103.000,0.200,41083.000,0.300,3668.000,0.500,2081.000,1.000,742.000,5.000,0
"03/05/08","18:10:23",272413.000,"cc",28236.332,6.00,6,0.100,235685.000,0.200,31371.000,0.300,2901.000,0.500,1773.000,1.000,683.000,5.000,0
"03/05/08","18:10:29",344710.000,"cc",28300.641,6.00,6,0.100,295065.000,0.200,43074.000,0.300,3702.000,0.500,2134.000,1.000,735.000,5.000,0
"03/05/08","18:10:35",327897.000,"cc",28312.090,6.00,6,0.100,281224.000,0.200,40174.000,0.300,3564.000,0.500,2202.000,1.000,733.000,5.000,0
"03/05/08","18:10:41",265438.000,"cc",28388.705,6.00,6,0.100,228043.000,0.200,31590.000,0.300,3063.000,0.500,2037.000,1.000,705.000,5.000,0
"03/05/08","18:10:47",245314.000,"cc",28306.531,6.00,6,0.100,210813.000,0.200,28563.000,0.300,3161.000,0.500,2000.000,1.000,777.000,5.000,0
"03/05/08","18:10:53",291536.000,"cc",28353.568,6.00,6,0.100,247808.000,0.200,35626.000,0.300,4300.000,0.500,2859.000,1.000,943.000,5.000,0
"03/05/08","18:10:59",203121.000,"cc",28327.977,6.00,6,0.100,175093.000,0.200,22402.000,0.300,2854.000,0.500,2072.000,1.000,700.000,5.000,0
"03/05/08","18:11:05",225000.000,"cc",28249.010,6.00,6,0.100,193529.000,0.200,25124.000,0.300,3186.000,0.500,2320.000,1.000,841.000,5.000,0
"03/05/08","18:11:11",246530.000,"cc",28297.672,6.00,6,0.100,211149.000,0.200,28183.000,0.300,3641.000,0.500,2613.000,1.000,944.000,5.000,0
"03/05/08","18:11:17",198513.000,"cc",28304.393,6.00,6,0.100,171012.000,0.200,21609.000,0.300,2918.000,0.500,2199.000,1.000,775.000,5.000,0
"03/05/08","18:11:23",199944.000,"cc",28396.727,6.00,6,0.100,172890.000,0.200,21606.000,0.300,2697.000,0.500,2045.000,1.000,706.000,5.000,0
"03/05/08","18:11:29",187380.000,"cc",28368.279,6.00,6,0.100,160766.000,0.200,20895.000,0.300,3102.000,0.500,1872.000,1.000,745.000,5.000,0
"03/05/08","18:11:35",156186.000,"cc",28261.645,6.00,6,0.100,132293.000,0.200,18232.000,0.300,3241.000,0.500,1790.000,1.000,630.000,5.000,0
"03/05/08","18:11:41",153284.000,"cc",28287.318,6.00,6,0.100,129223.000,0.200,17847.000,0.300,3528.000,0.500,1940.000,1.000,746.000,5.000,0
"03/05/08","18:11:47",168893.000,"cc",28302.729,6.00,6,0.100,144935.000,0.200,18605.000,0.300,2944.000,0.500,1819.000,1.000,590.000,5.000,0
"03/05/08","18:11:53",173158.000,"cc",28265.457,6.00,6,0.100,147375.000,0.200,19420.000,0.300,3761.000,0.500,1995.000,1.000,607.000,5.000,0
"03/05/08","18:11:59",162833.000,"cc",28370.494,6.00,6,0.100,135192.000,0.200,19237.000,0.300,5317.000,0.500,2349.000,1.000,738.000,5.000,0
"03/05/08","18:12:05",174001.000,"cc",28325.147,6.00,6,0.100,147074.000,0.200,19604.000,0.300,4192.000,0.500,2364.000,1.000,767.000,5.000,0
"03/05/08","18:12:11",186568.000,"cc",28316.822,6.00,6,0.100,159471.000,0.200,20379.000,0.300,3485.000,0.500,2374.000,1.000,859.000,5.000,0
"03/05/08","18:12:17",159314.000,"cc",28324.781,6.00,6,0.100,135498.000,0.200,17623.000,0.300,3337.000,0.500,2099.000,1.000,757.000,5.000,0
"03/05/08","18:12:23",163316.000,"cc",28314.750,6.00,6,0.100,137911.000,0.200,18859.000,0.300,3708.000,0.500,2078.000,1.000,760.000,5.000,0
"03/05/08","18:12:29",141677.000,"cc",28328.457,6.00,6,0.100,120139.000,0.200,15784.000,0.300,3218.000,0.500,1896.000,1.000,640.000,5.000,0
"03/05/08","18:12:35",158661.000,"cc",28370.379,6.00,6,0.100,134711.000,0.200,17654.000,0.300,3413.000,0.500,2174.000,1.000,709.000,5.000,0
"03/05/08","18:12:41",168381.000,"cc",28267.029,6.00,6,0.100,144137.000,0.200,18101.000,0.300,3184.000,0.500,2193.000,1.000,766.000,5.000,0
"03/05/08","18:12:47",126633.000,"cc",28270.613,6.00,6,0.100,107157.000,0.200,13831.000,0.300,3016.000,0.500,1978.000,1.000,651.000,5.000,0
"03/05/08","18:12:53",121078.000,"cc",28326.703,6.00,6,0.100,98423.000,0.200,15150.000,0.300,4709.000,0.500,2165.000,1.000,631.000,5.000,0
"03/05/08","18:12:59",139499.000,"cc",28345.430,6.00,6,0.100,115403.000,0.200,16567.000,0.300,4356.000,0.500,2390.000,1.000,783.000,5.000,0
"03/05/08","18:13:05",165471.000,"cc",28307.361,6.00,6,0.100,139446.000,0.200,18259.000,0.300,3743.000,0.500,2972.000,1.000,1051.000,5.000,0
"03/05/08","18:13:11",159622.000,"cc",28311.020,6.00,6,0.100,135627.000,0.200,17224.000,0.300,3252.000,0.500,2554.000,1.000,965.000,5.000,0
"03/05/08","18:13:17",138023.000,"cc",28342.338,6.00,6,0.100,115471.000,0.200,15284.000,0.300,3552.000,0.500,2739.000,1.000,977.000,5.000,0
"03/05/08","18:13:23",166199.000,"cc",28347.100,6.00,6,0.100,141559.000,0.200,18052.000,0.300,3363.000,0.500,2395.000,1.000,830.000,5.000,0
"03/05/08","18:13:29",159609.000,"cc",28301.832,6.00,6,0.100,135591.000,0.200,17280.000,0.300,3372.000,0.500,2493.000,1.000,873.000,5.000,0
"03/05/08","18:13:35",158600.000,"cc",28285.404,6.00,6,0.100,133134.000,0.200,17686.000,0.300,3905.000,0.500,2869.000,1.000,1006.000,5.000,0
"03/05/08","18:13:41",140854.000,"cc",28305.199,6.00,6,0.100,116762.000,0.200,15847.000,0.300,3974.000,0.500,3127.000,1.000,1143.000,5.000,1.000
"03/05/08","18:13:47",150327.000,"cc",28298.883,6.00,6,0.100,124086.000,0.200,17134.000,0.300,4288.000,0.500,3527.000,1.000,1292.000,5.000,0
"03/05/08","18:13:53",139218.000,"cc",28371.217,6.00,6,0.100,111148.000,0.200,16821.000,0.300,5412.000,0.500,4308.000,1.000,1529.000,5.000,0
"03/05/08","18:13:59",130028.000,"cc",28319.559,6.00,6,0.100,103272.000,0.200,15589.000,0.300,5066.000,0.500,4420.000,1.000,1681.000,5.000,0
"03/05/08","18:14:05",136766.000,"cc",28386.332,6.00,6,0.100,114169.000,0.200,15177.000,0.300,3452.000,0.500,2896.000,1.000,1072.000,5.000,0
"03/05/08","18:14:11",85668.000,"cc",28249.238,6.00,6,0.100,71312.000,0.200,9144.000,0.300,2294.000,0.500,2091.000,1.000,827.000,5.000,0
"03/05/08","18:14:17",80631.000,"cc",28383.063,6.00,6,0.100,67541.000,0.200,8599.000,0.300,2067.000,0.500,1725.000,1.000,699.000,5.000,0
"03/05/08","18:14:23",74007.000,"cc",28287.008,6.00,6,0.100,61890.000,0.200,7756.000,0.300,1871.000,0.500,1812.000,1.000,678.000,5.000,0
"03/05/08","18:14:29",73325.000,"cc",28233.043,6.00,6,0.100,60921.000,0.200,7898.000,0.300,1957.000,0.500,1817.000,1.000,732.000,5.000,0
"03/05/08","18:14:35",63103.000,"cc",28302.371,6.00,6,0.100,52245.000,0.200,6712.000,0.300,1806.000,0.500,1699.000,1.000,641.000,5.000,0
"03/05/08","18:14:41",58473.000,"cc",28309.070,6.00,6,0.100,47162.000,0.200,6399.000,0.300,2065.000,0.500,2035.000,1.000,812.000,5.000,0
"03/05/08","18:14:47",48734.000,"cc",28267.682,6.00,6,0.100,39782.000,0.200,5439.000,0.300,1530.000,0.500,1456.000,1.000,527.000,5.000,0
"03/05/08","18:14:53",46657.000,"cc",28393.275,6.00,6,0.100,38383.000,0.200,5121.000,0.300,1342.000,0.500,1345.000,1.000,466.000,5.000,0
"03/05/08","18:14:59",49087.000,"cc",28318.451,6.00,6,0.100,40587.000,0.200,5316.000,0.300,1335.000,0.500,1338.000,1.000,511.000,5.000,0
"03/05/08","18:15:05",47728.000,"cc",28326.795,6.00,6,0.100,39435.000,0.200,5075.000,0.300,1371.000,0.500,1413.000,1.000,434.000,5.000,0
"03/05/08","18:15:11",50181.000,"cc",28319.785,6.00,6,0.100,41657.000,0.200,5301.000,0.300,1388.000,0.500,1334.000,1.000,501.000,5.000,0
"03/05/08","18:15:17",50565.000,"cc",28384.264,6.00,6,0.100,40724.000,0.200,5690.000,0.300,1741.000,0.500,1819.000,1.000,591.000,5.000,0
"03/05/08","18:15:23",53152.000,"cc",28281.434,6.00,6,0.100,40187.000,0.200,6651.000,0.300,2757.000,0.500,2592.000,1.000,965.000,5.000,0
"03/05/08","18:15:29",51344.000,"cc",28283.678,6.00,6,0.100,40577.000,0.200,5836.000,0.300,2129.000,0.500,2061.000,1.000,741.000,5.000,0
"03/05/08","18:15:35",52766.000,"cc",28309.793,6.00,6,0.100,42492.000,0.200,5911.000,0.300,1812.000,0.500,1852.000,1.000,699.000,5.000,0
"03/05/08","18:15:41",48337.000,"cc",28324.676,6.00,6,0.100,38798.000,0.200,5276.000,0.300,1852.000,0.500,1758.000,1.000,653.000,5.000,0
"03/05/08","18:15:47",62589.000,"cc",28409.857,6.00,6,0.100,51349.000,0.200,6855.000,0.300,1899.000,0.500,1790.000,1.000,696.000,5.000,0
"03/05/08","18:15:53",51543.000,"cc",28326.570,6.00,6,0.100,42500.000,0.200,5531.000,0.300,1535.000,0.500,1454.000,1.000,523.000,5.000,0
"03/05/08","18:15:59",61581.000,"cc",28221.523,6.00,6,0.100,51268.000,0.200,6516.000,0.300,1668.000,0.500,1588.000,1.000,541.000,5.000,0
"03/05/08","18:16:05",54764.000,"cc",28279.977,6.00,6,0.100,43674.000,0.200,6311.000,0.300,2085.000,0.500,1940.000,1.000,754.000,5.000,0
"03/05/08","18:16:11",58568.000,"cc",28319.772,6.00,6,0.100,47558.000,0.200,6478.000,0.300,1959.000,0.500,1874.000,1.000,699.000,5.000,0
"03/05/08","18:16:17",55556.000,"cc",28298.885,6.00,6,0.100,44430.000,0.200,6381.000,0.300,2068.000,0.500,1986.000,1.000,691.000,5.000,0